Wind_Speed
12 12 12 13 13 14 15 17 19 20 22 24 25 23 22 23 25 27 29 30 32 34 36 37 37 35 31 31 30 29 31 32 32 32 30 27 27 27 27 27 27 28 29 29 30 31 32 33 34 34 34 34 34 33 31 29 27 27 28 28 27 25 23 21 20 19 16 13 10 8 6 4 4 4 3 4 3 4 6 6 7 10 13 10 8
12 12 12 12 13 14 16 17 19 20 22 24 25 24 22 22 25 26 28 30 32 34 35 36 37 35 32 30 29 29 30 31 32 31 30 28 26 26 26 27 26 27 27 28 28 28 29 30 31 32 33 33 33 33 32 31 29 26 25 25 25 25 23 22 22 21 19 18 16 14 13 11 8 6 7 6 6 7 9 9 8 9 10 10 11
12 12 12 12 13 14 16 17 19 20 22 24 25 24 22 22 24 26 28 30 31 33 35 35 36 35 32 29 29 29 29 30 31 31 30 29 26 25 25 26 26 26 26 26 27 27 27 27 28 29 30 31 32 31 31 31 30 29 27 24 23 22 21 21 20 20 19 19 18 17 17 15 13 13 13 12 10 9 9 8 9 9 10 11 12
12 12 12 12 13 14 16 17 19 20 22 24 25 24 23 22 23 25 27 29 31 33 34 35 35 35 33 29 28 29 29 30 31 31 31 30 28 26 25 25 25 25 25 25 26 26 26 26 26 26 27 28 29 30 30 29 29 28 28 27 25 23 21 19 18 17 17 17 17 17 18 16 15 15 15 15 13 12 11 10 8 8 8 8 9
12 11 12 12 13 14 16 17 19 20 22 25 25 25 23 22 23 25 26 28 30 32 34 34 34 34 33 30 27 28 29 29 30 31 31 30 29 28 27 25 25 24 24 24 24 25 25 25 25 25 25 25 26 27 27 27 27 27 26 26 26 25 23 20 18 16 15 14 14 14 15 15 14 13 13 13 12 11 11 10 9 7 6 5 5
11 11 11 12 13 14 15 17 18 20 23 25 25 25 24 23 23 24 26 28 30 32 33 34 33 33 33 31 27 26 28 29 29 30 30 31 30 30 28 27 26 25 25 25 24 24 24 24 24 25 24 24 24 24 24 24 25 25 25 25 24 24 24 22 21 18 16 14 12 11 10 10 10 10 10 10 10 9 9 8 8 7 6 5 4
10 10 11 12 13 14 15 16 18 20 23 25 25 25 24 23 23 24 26 28 29 31 32 32 33 33 34 32 28 26 26 28 28 29 30 31 31 30 29 28 27 26 25 25 25 24 23 23 23 24 24 24 23 22 22 22 22 22 23 23 23 22 22 21 21 20 18 15 13 11 8 7 7 7 7 7 7 8 7 7 7 7 6 5 4
10 10 11 12 13 14 15 16 18 20 23 24 24 24 25 24 24 25 26 28 29 30 31 32 33 33 34 33 30 26 25 26 27 29 29 30 30 30 31 30 29 28 26 25 25 25 24 23 23 22 23 23 22 22 21 20 20 20 20 20 21 20 20 20 20 19 19 17 15 13 11 9 7 6 5 5 6 6 6 6 6 5 5 4 3
9 10 11 12 12 13 14 15 17 20 22 23 24 24 25 24 24 25 27 28 29 30 31 32 32 33 33 33 31 27 25 25 27 28 29 29 30 30 31 32 31 30 28 25 24 23 24 24 23 22 22 21 20 20 20 20 19 18 18 18 18 18 18 19 18 18 18 18 17 15 13 11 9 7 6 5 4 3 3 4 4 4 4 4 2
10 10 11 12 12 13 14 15 17 19 21 22 23 24 25 24 25 26 27 28 29 29 31 31 32 32 31 31 31 29 26 26 26 27 28 29 30 31 32 33 33 32 30 27 24 23 22 22 23 22 22 21 20 19 19 19 19 18 18 17 17 17 17 16 17 17 17 16 16 16 14 13 11 9 7 4 3 3 2 2 2 2 3 3 3
10 11 11 12 12 13 14 14 16 18 20 22 22 23 24 24 25 26 27 28 29 30 30 31 31 31 30 30 30 29 27 26 26 27 28 29 30 32 33 34 35 34 31 28 25 23 21 20 21 21 22 22 21 20 19 18 18 18 18 17 16 15 15 15 15 15 15 15 15 14 14 13 13 11 9 7 4 3 4 3 3 2 2 3 3
10 11 11 11 12 13 13 14 15 17 19 21 22 23 24 24 25 26 27 28 29 29 30 31 31 30 29 29 29 29 28 27 27 27 28 29 31 33 34 36 37 36 33 28 24 22 20 19 19 20 21 21 21 20 19 18 18 18 18 18 16 15 14 13 13 13 13 13 13 13 13 13 13 12 11 10 7 4 3 4 4 4 4 4 4
10 11 11 11 12 13 13 14 15 16 18 20 21 22 23 24 25 25 26 28 29 29 30 32 32 30 28 28 29 29 28 27 27 28 29 30 32 33 35 37 38 37 32 27 24 22 21 19 19 20 21 21 20 19 18 17 18 17 17 17 17 16 14 13 12 12 11 11 11 12 12 12 12 12 11 11 10 9 5 3 5 5 6 5 4
10 11 11 11 11 12 13 14 15 16 18 19 20 21 23 24 24 25 26 27 28 29 30 32 32 30 28 29 30 29 28 28 28 28 30 31 33 34 36 38 38 35 31 27 25 23 22 21 21 21 22 21 19 18 17 17 17 17 17 17 17 17 16 15 13 12 11 11 10 10 10 10 11 11 11 11 11 11 9 5 4 5 7 7 6
10 11 11 11 11 12 13 13 14 15 17 18 19 20 21 23 24 24 25 26 28 29 30 31 32 30 28 29 31 30 29 28 29 30 31 32 34 36 37 38 36 33 30 27 25 24 23 23 23 22 22 21 19 18 18 17 17 17 17 17 17 17 16 15 14 13 12 11 10 9 9 9 9 10 11 11 11 11 11 9 6 5 8 9 8
10 11 11 11 11 12 13 13 14 15 17 18 19 19 20 22 23 24 25 26 27 29 29 31 32 30 28 30 32 31 30 29 30 31 33 34 36 37 37 37 34 30 28 27 25 24 23 23 23 22 22 20 19 18 18 18 18 17 17 17 17 17 17 16 14 14 13 13 11 9 9 9 9 9 10 10 11 12 12 11 9 6 8 10 10
11 11 12 11 11 11 12 13 14 15 16 18 19 19 19 20 22 23 24 25 27 28 29 31 32 31 28 30 32 32 31 31 32 33 35 36 37 38 37 35 32 29 28 27 25 24 24 23 22 22 22 21 20 18 18 18 18 18 18 18 18 18 17 16 15 14 14 14 12 10 9 9 9 9 10 10 11 12 13 12 11 8 8 11 11
12 12 12 11 11 11 12 13 14 14 16 17 18 19 19 20 21 22 23 24 26 28 29 30 32 31 28 29 32 33 32 32 33 35 37 38 38 38 36 33 30 28 28 27 26 25 24 23 23 23 23 22 21 20 19 19 19 19 19 19 19 18 18 17 16 15 15 14 13 12 10 9 9 10 10 10 11 12 12 12 11 10 9 11 11
13 13 13 12 12 12 12 13 14 14 15 17 18 19 19 19 20 21 23 24 25 27 28 30 31 31 29 29 32 34 34 33 35 36 38 38 38 36 34 32 29 28 27 26 26 25 24 24 24 23 23 23 23 22 22 21 21 21 20 19 19 18 17 17 16 16 15 14 13 12 10 9 9 10 10 11 12 12 12 11 10 10 10 11 11
15 14 13 13 13 13 13 13 14 14 15 16 17 18 19 19 19 20 22 23 24 26 28 29 30 31 30 29 30 33 35 34 35 37 38 38 37 35 33 30 29 28 27 26 25 25 24 24 24 25 25 25 25 24 24 23 23 22 21 20 18 18 17 16 16 16 15 14 14 13 11 10 10 10 11 12 13 12 11 10 9 9 11 12 11
17 16 15 14 14 14 14 14 14 15 15 16 17 18 19 19 19 20 21 22 23 25 26 28 30 31 30 29 29 31 34 35 35 37 38 38 37 35 32 30 29 27 27 26 26 25 25 25 26 26 26 26 26 26 25 24 23 22 21 20 19 18 17 16 15 15 14 14 14 13 11 10 10 10 11 13 12 11 9 7 6 7 10 11 10
18 18 16 15 15 15 16 15 15 15 15 16 16 17 18 19 19 19 20 21 23 24 25 27 29 30 31 30 28 30 33 35 35 36 37 37 36 34 32 30 28 27 27 26 26 26 27 27 28 28 29 28 28 27 27 25 24 22 21 20 19 18 17 16 16 15 14 13 13 12 10 9 10 10 11 12 10 7 5 2 2 4 7 8 10
19 19 18 17 16 16 16 17 16 16 16 16 17 17 18 18 19 19 19 20 22 23 25 26 28 30 31 30 28 29 32 35 35 36 37 37 36 34 32 30 29 27 27 27 27 28 29 30 31 31 32 31 30 29 28 26 24 23 21 20 19 19 18 16 16 16 14 13 12 11 9 8 9 10 10 9 5 4 3 4 3 5 7 7 9
19 20 20 19 18 17 17 18 18 17 17 17 17 17 17 18 19 19 18 19 21 22 24 26 28 29 30 30 29 29 32 34 35 36 37 37 36 35 32 30 29 28 28 28 29 30 31 32 33 34 34 33 32 30 29 27 25 23 21 20 19 19 19 17 16 15 14 13 12 9 7 7 8 8 8 4 3 4 4 6 6 7 7 6 7
19 21 21 21 20 18 17 18 18 18 18 17 17 17 18 18 19 19 18 19 20 22 23 25 27 29 30 30 29 30 32 34 34 36 37 37 36 35 33 31 29 29 29 30 31 32 33 34 35 35 35 34 33 31 29 27 25 23 22 20 18 18 19 19 17 15 13 13 11 8 5 6 7 6 5 1 5 5 5 6 7 8 9 7 7
20 20 21 22 21 20 18 18 19 19 19 19 18 17 18 18 19 19 18 18 20 22 23 25 27 28 29 30 30 30 32 33 34 35 36 37 36 35 33 31 30 30 30 31 32 33 34 36 37 38 37 36 33 30 28 26 24 22 22 21 19 18 18 18 17 15 12 11 9 7 4 4 5 4 2 3 8 7 7 7 7 8 9 7 8
21 21 21 22 23 22 20 19 18 19 19 20 19 18 18 18 19 19 19 18 19 21 23 25 27 28 28 29 29 31 33 33 34 35 36 36 36 34 33 32 31 31 32 33 34 35 36 38 39 38 37 35 32 29 27 24 22 21 21 21 20 19 17 16 17 16 13 9 7 6 4 3 3 3 2 5 9 9 8 6 6 9 9 6 8
23 22 21 22 23 23 22 20 19 19 19 20 20 19 18 19 19 20 19 19 19 21 22 24 27 27 28 28 29 31 33 33 33 35 35 36 35 34 33 32 32 32 33 34 35 37 38 38 38 37 35 33 30 28 26 23 21 20 21 21 21 19 16 13 15 17 13 7 5 5 4 2 2 4 4 6 9 10 9 6 5 8 8 6 8
24 23 22 22 23 23 23 21 20 19 19 20 20 20 19 19 19 20 20 20 20 21 22 24 26 27 27 28 29 31 33 33 33 34 35 35 35 34 34 33 33 33 34 35 36 37 38 38 38 37 36 33 30 28 25 23 21 20 21 21 20 18 15 11 12 15 13 5 5 5 3 2 1 3 7 8 9 10 9 7 5 6 7 8 10
24 24 23 23 23 23 23 22 21 20 20 20 20 20 20 19 20 20 21 21 21 21 22 24 26 27 27 27 29 31 32 32 33 34 34 34 34 34 34 34 34 34 34 35 36 37 38 38 39 38 37 34 31 28 25 22 20 19 20 20 18 17 15 10 10 14 12 4 6 5 3 2 2 2 7 9 10 11 10 8 7 7 8 11 11
24 24 24 23 23 23 23 23 22 21 20 20 20 20 20 20 20 21 21 21 21 22 23 24 26 26 26 27 29 31 32 32 32 33 34 34 34 34 35 34 34 34 35 36 37 38 39 39 39 39 38 35 33 30 25 20 18 18 19 19 17 15 13 9 9 13 11 3 7 4 2 1 3 1 5 9 12 12 11 10 9 7 8 11 11
24 24 24 24 24 24 24 24 23 22 21 21 21 21 21 21 20 21 21 22 22 23 24 25 26 26 26 27 28 30 31 31 32 32 33 33 33 34 35 34 34 34 35 36 37 38 39 40 40 39 38 36 34 31 25 18 16 16 17 18 16 13 11 8 9 13 10 3 8 5 2 1 2 2 2 8 12 14 13 12 11 9 8 9 10
26 25 24 24 24 24 24 24 24 23 22 21 21 21 21 21 21 21 22 22 23 24 25 25 25 25 25 26 28 29 30 30 31 32 31 32 32 34 34 34 34 35 35 36 37 39 39 40 40 39 38 36 34 30 24 17 14 15 15 16 15 13 10 8 8 12 10 2 8 4 2 1 2 3 0 4 10 14 15 14 13 11 9 8 9
28 26 25 24 24 24 25 25 25 24 23 23 22 22 21 21 21 21 22 23 24 25 25 25 25 24 25 26 28 29 29 29 30 30 30 31 32 33 34 34 34 35 35 36 38 39 40 40 40 39 38 36 33 29 22 16 14 15 14 14 14 13 12 8 7 11 9 2 7 4 2 1 1 4 3 0 5 11 15 15 14 12 10 8 7
28 27 26 25 24 24 25 26 26 25 24 24 23 22 21 21 21 21 22 23 24 24 25 24 23 23 24 26 27 28 28 28 29 30 30 30 32 33 33 33 34 35 35 36 38 39 40 39 39 39 37 35 33 28 21 15 14 15 14 14 14 14 13 10 8 9 8 2 6 5 2 2 1 4 4 3 1 6 11 15 16 14 11 9 8
28 27 27 27 27 26 26 26 26 26 25 24 24 22 22 21 21 21 22 22 23 24 24 23 22 23 24 26 27 27 27 28 28 29 29 30 31 32 32 33 34 34 35 36 38 39 39 39 39 38 36 34 32 29 22 16 14 14 14 13 13 13 14 12 9 8 6 2 7 6 3 2 1 3 5 5 3 2 6 12 16 16 13 10 9
28 28 29 30 30 28 27 26 26 26 26 25 24 23 22 22 21 21 22 22 23 24 24 23 21 22 24 26 26 26 27 27 28 28 29 29 30 31 31 32 33 34 35 36 37 38 38 38 38 37 35 33 32 29 24 18 14 13 13 13 13 13 13 12 10 9 6 2 7 7 4 3 2 3 5 6 5 2 2 7 13 17 16 12 10
30 29 29 30 30 29 27 26 26 27 26 26 24 24 23 22 21 21 21 22 23 24 24 21 21 23 25 25 25 25 26 26 27 27 28 29 29 30 31 32 32 34 34 35 37 37 38 38 37 36 34 33 31 29 26 20 14 12 12 13 12 12 12 12 10 9 6 2 7 8 6 4 3 3 4 7 7 5 3 3 8 15 17 15 12
32 31 30 30 30 28 26 26 26 27 27 26 25 24 24 23 22 21 21 22 23 23 22 21 22 24 25 25 25 24 25 26 26 27 27 28 29 29 30 31 32 33 34 35 36 37 37 37 36 34 32 31 31 29 26 20 15 12 12 13 13 12 12 12 11 9 7 3 6 8 6 5 4 3 4 6 7 7 6 4 4 11 16 17 14
34 33 32 31 30 28 28 28 27 27 27 26 25 25 24 23 22 21 21 21 21 21 21 22 23 24 25 25 24 24 24 25 26 26 27 27 28 28 29 30 31 32 33 34 35 36 36 36 35 33 31 30 29 28 25 21 16 13 12 13 13 13 12 13 12 10 7 4 6 9 7 5 5 4 4 5 6 7 8 7 4 5 12 16 16
35 34 33 31 29 29 29 29 28 27 27 27 25 25 25 24 23 21 19 19 20 21 22 23 24 24 25 25 24 24 24 24 25 25 26 27 27 28 29 29 30 31 32 34 35 35 36 36 35 32 29 28 28 27 24 20 17 15 14 14 14 14 13 12 12 10 7 4 6 9 8 6 5 5 4 5 6 7 8 8 7 5 6 11 15
36 34 33 32 30 29 29 30 30 29 28 27 25 25 25 24 23 21 20 20 21 22 21 22 23 24 24 24 23 23 23 23 24 25 25 26 26 27 28 29 29 30 31 33 34 35 35 35 34 31 27 25 26 26 24 20 18 16 15 14 15 14 13 12 11 10 8 4 4 8 9 7 5 5 4 5 5 6 7 8 9 8 7 6 9
37 36 35 33 31 30 30 31 32 31 29 27 26 25 25 24 23 21 20 21 22 21 20 21 23 23 23 23 23 22 21 22 23 24 24 25 26 26 27 28 28 29 31 32 33 34 34 34 33 30 26 23 23 24 23 21 18 17 16 15 14 14 14 12 10 9 8 6 2 6 9 8 6 6 5 4 5 5 5 6 8 9 9 8 6
38 38 37 35 33 32 32 33 33 32 30 28 26 25 24 24 22 21 19 20 21 21 20 21 22 23 23 23 22 21 20 21 23 24 24 24 25 25 26 27 28 29 31 32 33 33 34 33 32 29 25 21 21 22 22 21 18 16 16 16 15 14 13 12 11 9 8 6 3 3 8 9 8 6 6 6 5 4 4 5 6 7 8 9 9
40 40 38 36 34 33 33 34 34 33 30 27 26 25 25 24 23 22 21 21 22 22 22 22 23 22 22 22 22 20 20 21 23 23 23 23 23 24 25 26 27 28 30 31 32 33 33 33 31 28 24 20 19 20 20 20 19 16 15 15 15 14 13 11 10 9 8 7 5 2 4 8 8 7 7 7 6 5 5 4 4 5 6 7 8
41 40 39 38 35 33 33 34 35 34 30 27 25 26 26 25 24 23 23 23 24 23 22 22 23 22 22 22 21 20 20 21 22 22 22 22 22 23 24 25 26 27 29 30 31 32 32 32 31 28 23 20 18 18 18 18 18 17 15 14 14 14 13 12 10 9 8 7 5 3 1 4 7 8 7 7 7 7 6 6 5 5 5 6 7
43 41 40 39 37 35 35 35 34 33 31 27 25 26 27 25 24 23 23 23 23 22 21 21 22 22 21 21 21 19 19 21 22 22 21 21 21 22 23 24 25 27 28 29 30 31 32 31 30 27 23 19 18 18 18 17 17 16 16 15 14 12 12 12 11 9 8 7 5 3 2 1 4 6 8 8 8 8 8 7 7 6 5 5 6
44 43 42 41 39 38 37 35 34 35 34 30 27 27 27 25 25 25 25 24 23 22 21 22 22 22 21 21 20 19 19 20 21 21 20 20 20 21 22 23 24 26 27 28 29 30 31 31 30 27 23 20 18 17 17 17 17 16 15 15 15 13 12 11 10 9 8 7 6 4 3 1 1 4 7 8 9 9 9 9 9 8 7 7 6
46 45 44 42 40 39 37 35 35 35 35 32 29 27 27 27 27 27 27 25 23 22 22 22 22 21 20 21 20 19 19 20 21 20 19 19 19 20 21 22 23 25 26 27 28 29 29 30 29 26 23 20 19 17 16 16 17 16 15 15 14 14 13 11 9 8 8 7 6 5 4 3 2 1 4 7 9 10 10 10 10 9 9 8 8
49 47 45 44 42 40 38 36 35 36 37 34 30 27 27 27 28 27 27 25 23 22 22 22 22 21 21 21 20 19 19 19 20 19 18 18 18 19 20 21 22 24 25 26 27 28 28 28 28 25 22 20 19 18 16 16 16 17 16 15 14 13 12 11 10 8 7 7 6 5 4 3 3 2 1 5 8 10 10 10 10 10 10 10 9
52 50 47 45 44 42 40 37 35 36 38 35 29 27 27 28 27 27 26 24 23 23 23 23 22 21 21 21 20 19 18 19 19 18 17 17 17 18 20 20 21 23 24 25 26 26 27 27 26 24 22 20 19 18 17 16 16 16 16 16 14 13 11 11 10 8 7 6 5 5 4 3 3 2 1 2 6 9 10 10 10 10 10 10 10
Wind_Direction
329 328 327 327 332 337 343 354 2 2 360 358 356 355 354 356 359 0 1 2 2 2 3 5 6 7 8 9 11 10 9 8 7 7 7 8 9 8 9 10 12 15 19 24 28 30 30 29 29 31 33 35 37 39 40 40 41 41 43 47 52 56 61 64 66 67 71 77 82 91 104 127 166 185 187 195 202 190 186 191 201 213 223 236 234
329 328 327 329 333 336 342 355 2 2 359 357 355 354 353 354 357 359 0 1 2 2 2 3 5 7 8 9 11 12 10 9 8 8 8 9 10 10 9 8 9 11 14 19 23 27 30 30 29 29 31 33 35 37 38 40 42 42 42 43 46 49 51 54 58 60 62 65 68 72 76 79 90 107 116 125 132 136 147 159 169 189 208 214 203
329 328 328 330 333 336 343 355 2 0 359 356 354 353 352 352 355 357 359 360 0 1 1 1 4 6 7 8 11 13 12 11 10 10 10 10 11 12 11 9 8 8 10 12 16 21 25 28 29 29 29 30 33 35 35 36 39 42 43 42 44 46 46 47 49 51 54 56 60 63 65 65 67 71 75 78 81 89 103 121 136 152 165 173 176
329 329 328 330 332 336 345 356 0 359 358 355 353 353 352 351 353 355 357 358 359 359 359 360 2 5 7 8 10 13 13 12 12 11 12 12 13 14 13 10 8 8 9 9 11 13 17 21 24 27 29 30 30 32 33 33 34 37 40 41 41 43 44 44 44 45 46 48 51 55 55 54 53 53 56 61 62 61 65 75 87 104 126 146 156
330 328 328 330 333 338 349 357 359 358 357 355 353 353 353 351 351 353 355 356 357 358 358 358 360 3 6 7 8 12 13 13 13 12 12 13 15 15 15 12 9 8 8 9 9 10 10 12 15 19 24 28 30 30 30 30 31 33 35 36 37 39 40 42 42 42 41 40 43 47 49 48 46 47 51 54 53 51 51 56 63 71 87 109 128
329 328 329 331 335 342 351 357 358 357 357 355 354 355 354 353 352 352 354 354 355 357 356 357 359 2 5 7 7 9 13 13 13 13 13 13 14 15 15 13 11 9 8 8 8 9 8 7 8 11 15 20 24 27 27 27 28 29 31 32 33 33 35 37 39 40 40 39 38 38 41 42 41 42 47 50 51 46 41 43 49 54 59 67 78
328 329 331 333 338 345 352 356 357 357 357 356 356 357 356 355 354 353 354 354 355 356 355 356 359 1 4 6 6 6 10 12 12 12 13 13 13 12 12 11 11 10 9 9 8 8 7 6 6 6 7 10 13 18 21 23 24 25 27 29 29 29 29 31 34 36 37 40 41 36 30 31 33 33 35 40 42 37 28 26 30 33 38 48 59
329 331 333 337 342 347 352 355 357 357 358 357 358 359 358 358 358 357 357 358 357 356 356 357 360 2 3 5 5 5 6 9 10 11 12 12 11 10 9 8 7 7 7 7 8 8 7 5 4 4 3 4 4 6 10 15 17 19 22 24 25 25 24 25 28 29 30 33 38 39 34 28 22 18 20 26 29 25 17 11 12 14 18 27 47
330 333 336 341 344 347 351 355 356 357 358 357 358 0 1 1 2 4 3 2 360 358 359 360 1 2 3 4 5 5 4 4 7 9 9 9 9 8 7 5 4 2 2 2 4 6 8 6 3 1 0 360 359 358 359 3 7 9 13 16 18 19 19 19 20 23 25 26 28 33 36 34 29 20 12 8 7 7 6 354 340 345 355 357 9
330 335 339 342 344 346 350 354 355 356 358 358 359 1 2 3 7 9 8 5 3 2 1 1 1 2 3 5 6 5 4 3 5 6 6 5 5 5 4 2 0 359 358 357 357 359 3 6 5 0 356 354 356 356 354 355 356 358 1 5 9 10 11 12 12 14 17 20 21 24 27 31 34 33 26 11 342 317 313 316 304 308 325 321 311
332 336 340 343 343 345 350 352 353 355 357 357 359 1 2 5 9 11 10 8 6 4 3 2 1 2 3 5 5 5 4 3 3 3 1 0 0 0 360 359 357 355 353 353 354 354 355 359 3 1 356 350 349 351 351 350 349 349 349 352 358 1 1 2 4 4 6 10 12 15 17 20 25 28 31 29 12 317 286 274 269 276 285 282 276
333 335 338 342 342 343 348 350 350 353 355 355 357 0 1 4 8 10 10 8 7 5 4 3 2 3 3 4 5 5 4 1 360 359 357 356 355 355 355 354 353 352 350 349 350 352 352 352 355 357 356 350 345 344 345 345 345 344 342 342 345 349 351 352 352 353 355 357 359 2 7 11 14 17 22 26 26 11 314 282 272 269 267 265 264
332 334 336 339 339 341 346 347 347 350 352 352 355 358 360 3 6 8 8 8 7 6 4 4 3 3 4 5 5 5 3 1 359 358 356 354 352 351 350 349 348 348 348 348 347 348 349 349 348 348 348 347 342 337 337 339 339 339 337 336 335 336 338 340 341 343 343 342 344 348 353 360 2 5 10 14 18 20 7 308 270 261 260 260 260
330 332 334 334 336 340 344 344 344 346 348 349 352 355 358 1 4 6 6 6 6 6 4 3 3 3 5 6 6 4 2 1 1 0 357 354 351 349 347 346 346 347 349 349 348 346 345 344 343 341 340 341 338 333 330 331 332 332 332 331 330 328 328 329 331 333 332 331 332 335 339 345 349 351 356 1 5 10 8 348 291 255 249 250 249
327 329 330 330 334 338 341 342 341 343 345 346 348 352 355 358 1 4 5 5 4 4 4 3 3 3 5 6 5 3 2 2 2 0 357 353 350 348 347 347 348 350 352 352 350 348 345 343 341 340 340 339 338 333 328 326 326 326 326 326 325 323 322 323 324 323 322 323 324 325 326 330 336 339 342 346 351 355 356 349 325 264 240 240 240
324 324 325 326 331 335 338 339 339 340 342 343 345 349 352 354 358 2 3 2 2 3 3 2 2 3 4 5 4 3 3 3 2 360 356 353 351 350 350 350 351 353 354 354 353 351 349 347 346 346 345 344 341 334 329 326 324 323 322 321 321 319 318 319 319 316 315 316 317 318 317 319 323 327 330 334 337 340 342 339 327 286 244 235 234
319 321 320 322 327 331 334 336 336 337 338 339 342 346 348 350 354 359 1 0 1 2 1 1 2 2 3 3 4 4 5 4 3 0 358 356 355 354 353 353 354 355 355 354 353 353 352 351 350 350 350 348 344 338 332 327 324 322 320 319 318 316 315 316 316 314 311 310 310 311 312 315 317 319 321 324 325 328 330 329 322 297 253 234 229
314 316 316 318 321 325 329 332 333 334 335 336 339 343 345 346 350 355 359 359 360 0 360 0 2 2 1 2 3 4 4 4 3 1 360 359 358 356 355 355 355 355 355 355 354 354 353 352 351 350 349 347 344 340 334 327 324 321 319 318 317 315 314 315 314 312 309 307 305 306 309 312 313 313 315 316 318 320 320 319 315 296 259 235 227
309 311 313 315 316 319 324 327 329 331 332 333 336 340 342 343 346 351 356 358 359 359 358 358 360 0 359 359 2 3 3 3 3 3 2 1 360 358 356 356 356 356 356 355 355 355 354 352 350 348 347 344 341 337 331 326 323 321 320 319 317 314 312 312 311 310 308 305 303 303 305 308 308 310 313 314 316 316 315 312 304 280 250 231 223
306 307 309 312 313 314 318 322 325 327 329 330 333 336 338 339 343 347 352 356 357 357 357 356 358 359 358 357 358 0 2 2 3 3 3 2 1 359 357 357 357 356 355 355 354 354 353 351 349 347 344 341 337 332 327 323 320 319 319 318 316 313 310 309 307 307 306 303 301 300 302 305 308 313 317 318 317 317 317 310 289 257 233 223 217
305 304 306 308 310 311 313 317 321 323 325 327 330 332 334 337 339 343 349 353 354 355 355 354 355 357 357 355 354 356 359 1 2 3 3 2 1 360 358 358 357 356 355 354 353 353 352 350 348 346 343 339 335 330 325 320 317 315 317 317 316 314 311 308 306 304 303 301 299 298 300 306 312 318 321 321 321 323 325 313 277 238 218 213 203
303 301 302 305 307 309 309 312 316 320 322 323 326 328 331 333 336 339 344 348 351 351 352 352 352 354 355 354 352 351 354 358 0 1 2 2 1 360 359 358 357 356 354 353 352 352 351 349 347 345 342 339 335 331 326 322 318 316 315 317 318 317 312 309 306 305 303 300 297 295 298 305 312 320 324 324 329 342 4 16 267 220 202 197 187
300 299 299 301 303 306 307 309 312 316 318 320 322 324 326 329 332 335 339 344 346 348 349 349 350 352 354 354 351 349 351 354 358 0 1 1 1 360 359 358 357 356 354 353 352 351 349 348 346 344 341 339 335 332 329 326 324 321 318 318 319 319 316 311 307 306 306 302 295 289 292 303 311 320 326 332 351 26 83 126 167 192 186 184 182
297 297 297 297 299 302 305 307 309 312 315 316 317 319 322 325 329 331 334 339 342 345 346 347 348 350 352 353 351 348 348 351 356 359 360 0 0 360 359 358 357 355 354 352 351 350 349 348 346 344 342 340 338 336 333 330 328 327 324 321 319 319 317 311 306 306 308 304 296 284 284 300 308 318 331 348 69 87 113 140 158 175 178 182 185
295 295 294 294 295 298 301 305 306 309 311 312 313 315 317 321 325 328 330 334 338 341 343 344 346 348 350 351 350 348 347 349 354 358 359 359 360 359 359 358 356 355 354 352 351 350 349 348 346 345 344 342 340 338 335 333 332 332 332 329 323 319 317 310 304 303 306 305 295 277 274 297 301 315 336 66 125 119 125 141 157 173 175 174 177
292 291 292 293 293 294 297 301 304 306 307 308 309 311 313 317 321 324 325 328 334 338 340 342 344 346 348 349 349 348 347 349 353 356 357 358 359 359 358 357 356 355 354 352 351 350 349 348 347 347 346 344 342 340 338 337 338 338 338 336 329 322 319 315 308 302 300 301 290 263 259 293 291 298 333 138 143 140 143 151 164 173 169 164 172
292 289 289 290 291 292 293 296 300 302 304 305 306 308 310 313 317 320 322 323 329 334 337 339 342 344 346 347 347 347 347 349 352 355 356 357 358 358 357 357 356 355 353 352 351 350 349 349 349 348 346 344 342 341 340 340 341 341 340 340 337 329 323 320 316 308 299 292 275 242 239 289 276 256 213 157 159 164 167 165 171 175 172 169 175
293 289 287 287 289 290 291 292 295 298 300 302 304 305 307 310 313 316 318 319 323 329 333 336 339 342 344 345 345 345 346 347 351 353 355 356 357 357 357 357 356 355 353 352 351 351 351 351 350 348 346 344 342 340 339 340 341 341 341 342 341 337 329 321 319 317 306 283 241 218 224 289 263 222 205 174 171 183 191 191 182 175 175 177 172
293 290 285 284 286 288 289 289 291 293 296 299 301 302 304 306 309 312 315 315 317 323 328 332 337 340 342 342 342 343 344 346 350 352 353 355 356 356 356 357 356 354 353 352 352 352 352 351 349 348 346 345 343 341 339 339 340 341 342 342 343 342 337 324 321 326 320 278 209 202 221 298 321 205 202 190 183 188 195 197 187 172 171 175 170
289 288 285 282 282 285 286 287 287 289 292 295 298 299 300 303 306 309 311 311 313 317 322 329 335 339 341 340 339 340 342 345 348 351 352 354 355 355 356 356 355 354 353 352 352 352 352 351 350 349 347 346 344 342 339 338 339 341 344 345 344 344 341 331 325 333 329 270 195 191 219 299 352 195 196 196 193 192 191 188 182 172 174 177 173
284 283 283 281 280 281 283 283 284 286 288 291 294 295 296 300 304 307 308 308 309 311 316 324 332 337 338 337 336 337 340 343 346 349 351 352 353 354 355 356 355 353 353 353 353 352 352 352 351 350 348 347 346 343 340 338 339 341 346 350 348 346 347 346 342 341 335 248 187 184 206 284 348 347 193 196 198 196 192 187 180 173 175 180 178
280 280 280 279 278 278 280 281 281 283 285 288 290 292 294 298 302 304 306 306 305 305 310 319 329 334 336 335 334 335 337 341 345 348 350 351 352 354 355 355 354 353 353 353 353 352 353 353 352 351 350 349 348 346 344 343 342 344 350 354 354 353 355 359 355 348 340 225 182 177 181 205 350 353 196 196 199 198 194 190 185 179 178 184 190
278 277 277 277 276 276 276 277 279 280 282 285 287 288 291 296 300 303 304 303 302 301 305 314 325 332 333 332 331 332 335 339 343 346 347 349 351 353 354 354 353 353 353 353 353 353 354 353 353 352 352 351 351 350 350 351 350 350 354 359 2 4 6 7 1 354 349 195 176 170 159 161 357 359 349 197 200 199 197 193 190 186 183 184 194
278 277 276 275 274 274 274 274 276 278 280 282 284 286 290 295 298 301 301 300 299 299 301 310 322 329 330 328 329 330 333 337 341 343 345 348 351 352 353 353 353 353 353 353 353 354 354 354 354 354 353 353 353 353 355 357 355 355 358 3 7 9 11 11 2 356 0 125 167 166 142 133 18 6 16 166 200 200 199 197 194 192 189 184 184
280 278 276 274 273 273 272 272 274 276 278 280 282 285 289 293 295 298 299 299 300 299 300 308 320 326 326 326 327 328 331 335 338 340 343 347 350 351 352 352 352 352 353 354 354 354 354 355 355 355 355 355 356 356 357 357 355 357 2 6 8 11 13 14 4 355 3 94 165 171 146 118 39 18 24 30 174 198 200 199 197 194 192 187 181
280 278 276 274 274 274 273 272 273 274 276 278 281 283 286 289 292 295 297 298 300 298 298 306 318 324 323 323 325 326 329 332 336 338 341 346 349 350 351 352 352 353 353 354 354 354 355 355 356 356 356 356 358 359 357 353 352 359 6 8 10 12 14 15 10 1 6 114 166 172 158 125 67 31 32 35 41 179 196 198 197 195 192 191 185
278 278 275 273 273 273 272 270 271 273 274 276 279 281 284 287 290 293 294 296 297 295 296 304 317 321 320 321 323 325 327 330 333 336 340 345 348 349 350 351 352 352 353 354 354 354 355 356 357 357 356 357 359 0 360 354 351 359 8 10 11 13 14 15 16 15 19 110 165 171 165 140 102 47 41 43 43 49 164 188 194 194 193 195 191
275 276 275 273 272 272 271 269 268 269 271 274 277 279 281 284 287 290 293 296 296 294 295 305 316 319 318 319 322 324 325 328 331 335 339 344 347 348 349 351 352 352 353 354 354 355 356 357 357 357 357 357 359 2 2 358 353 359 9 11 11 14 17 17 19 22 27 96 165 172 168 151 128 80 54 53 48 46 69 150 186 191 193 196 195
270 272 273 273 271 269 269 269 267 266 268 271 274 277 280 283 284 286 290 293 293 292 296 306 315 316 315 318 322 323 323 326 330 334 338 342 345 347 349 351 352 352 353 354 355 355 356 357 357 357 357 358 0 3 4 2 358 1 10 13 11 14 18 20 21 26 34 86 164 173 171 158 141 111 73 63 56 50 55 77 154 185 193 197 197
266 269 271 272 271 269 268 269 268 265 265 268 271 275 278 280 281 283 289 291 289 290 298 306 311 311 313 317 321 321 320 324 329 333 337 341 344 346 348 350 352 352 352 353 354 355 356 357 357 357 357 359 1 4 6 5 3 5 11 15 13 12 16 20 21 26 38 82 161 175 175 162 148 128 94 78 69 58 57 61 82 157 187 196 198
262 266 269 270 270 267 265 266 267 264 261 263 268 272 275 277 279 281 284 285 285 288 296 302 306 308 311 316 319 317 317 323 329 332 336 340 343 345 347 350 352 352 352 353 354 355 356 357 357 356 356 359 2 6 7 7 7 8 12 16 15 12 12 16 21 26 38 81 160 178 182 174 160 146 117 96 86 72 65 64 66 85 156 187 196
260 263 266 267 268 267 264 263 263 261 259 260 264 268 272 275 277 277 276 277 280 285 293 299 302 305 310 313 314 313 316 323 329 331 334 338 341 344 346 349 351 352 352 352 354 355 356 357 357 356 356 358 2 6 9 9 9 10 12 14 16 14 11 11 17 24 33 57 151 180 186 182 173 164 141 111 100 88 79 75 72 73 89 140 179
257 259 261 263 265 266 265 263 262 260 257 256 260 265 269 272 274 275 275 275 276 282 292 299 301 303 308 311 311 312 318 324 327 329 332 336 340 343 345 348 350 352 352 352 353 354 356 357 357 355 355 356 1 6 9 10 10 12 13 14 14 14 12 10 13 20 29 39 97 180 189 187 181 177 168 144 119 106 96 90 84 80 80 89 117
256 257 259 260 261 264 265 263 261 259 256 254 256 262 266 268 269 270 270 270 273 281 292 298 299 302 306 309 310 313 320 324 326 326 329 334 338 342 345 347 350 352 352 351 352 354 355 357 356 355 354 355 359 4 8 10 11 12 15 16 16 14 12 10 11 17 25 32 48 167 191 194 190 186 183 175 158 139 126 114 102 94 90 86 89
254 256 258 258 260 263 265 264 261 258 253 251 255 259 262 263 263 264 264 265 270 280 291 296 297 301 305 308 310 314 320 322 323 323 326 331 337 341 344 347 349 351 351 351 351 353 355 356 356 355 354 354 357 1 5 9 11 11 13 16 18 18 14 10 8 13 19 27 38 87 185 198 199 196 192 188 182 171 159 147 130 116 108 100 94
252 254 255 256 257 259 261 262 261 256 251 249 253 256 258 259 261 263 264 264 268 277 287 292 295 300 304 306 308 313 317 319 319 319 323 329 335 340 344 347 348 350 350 350 351 353 354 355 356 356 354 354 356 359 1 5 8 10 9 10 13 16 16 13 8 8 13 20 30 49 142 198 207 206 200 195 194 190 184 176 164 148 133 121 113
252 252 253 254 254 254 256 258 258 254 251 250 251 253 256 258 258 258 257 259 266 278 286 289 291 296 301 303 306 311 314 315 314 315 320 327 334 339 343 346 348 349 350 350 350 352 354 355 356 357 355 353 353 356 358 0 3 6 7 7 7 9 12 13 11 8 10 15 22 33 62 172 211 217 213 206 201 199 198 194 188 178 166 153 139
251 251 251 252 252 251 252 254 255 253 252 251 250 250 252 253 254 253 254 258 269 280 285 285 289 295 299 302 305 308 310 310 310 312 317 326 333 338 342 345 347 348 349 349 350 352 353 354 355 357 357 354 352 352 356 358 359 360 2 4 6 7 8 9 9 8 9 13 17 19 29 52 187 221 223 218 210 203 201 201 200 195 188 180 171
251 250 249 249 249 249 249 250 252 252 250 247 244 245 248 249 251 253 255 261 271 279 281 283 288 294 297 299 302 305 305 305 306 309 315 323 331 336 340 344 346 347 348 348 349 351 353 354 355 356 357 356 352 350 351 354 357 358 357 357 1 5 6 6 6 4 4 8 12 11 11 19 29 251 229 224 218 210 205 202 201 202 200 196 190
249 248 247 246 247 247 247 249 250 250 246 242 241 243 246 248 248 249 252 260 271 277 279 282 286 290 293 296 299 301 301 301 303 307 313 320 328 334 338 342 345 346 347 348 349 350 351 353 354 355 356 355 353 351 349 350 352 355 355 353 353 356 1 4 4 1 358 358 1 1 358 359 5 4 251 225 220 215 209 204 202 202 204 203 199
247 246 245 243 243 244 245 246 248 247 244 240 238 239 242 243 244 246 252 262 271 274 277 281 284 285 289 293 295 295 296 298 300 304 309 317 325 332 337 341 344 345 346 347 349 349 350 352 354 355 355 354 352 350 349 348 349 351 353 353 350 348 350 356 0 360 355 350 348 349 349 347 350 1 359 235 220 216 212 208 205 204 203 203 202
Height
5775 5774 5773 5772 5770 5769 5767 5765 5763 5761 5759 5756 5754 5752 5749 5747 5745 5742 5739 5737 5734 5731 5728 5724 5721 5717 5713 5709 5706 5703 5700 5697 5694 5691 5688 5685 5683 5680 5677 5674 5672 5669 5666 5663 5661 5658 5655 5652 5650 5647 5644 5642 5639 5636 5634 5632 5630 5628 5626 5624 5622 5621 5619 5618 5616 5615 5614 5613 5612 5612 5611 5610 5610 5609 5609 5609 5609 5609 5608 5609 5609 5610 5611 5612 5613
5775 5773 5772 5771 5770 5768 5766 5765 5762 5760 5758 5756 5754 5751 5749 5747 5744 5742 5739 5737 5734 5731 5728 5725 5721 5717 5714 5710 5707 5704 5701 5698 5695 5692 5689 5686 5683 5681 5678 5675 5673 5670 5667 5665 5662 5660 5657 5655 5652 5649 5647 5644 5642 5639 5637 5635 5633 5631 5629 5627 5625 5624 5623 5621 5620 5619 5617 5616 5615 5614 5613 5612 5612 5611 5610 5610 5610 5610 5609 5609 5610 5610 5611 5612 5612
5774 5773 5772 5770 5769 5767 5766 5764 5762 5759 5757 5755 5753 5751 5748 5746 5744 5741 5739 5737 5734 5731 5728 5725 5721 5718 5715 5711 5708 5705 5702 5699 5696 5693 5690 5687 5684 5682 5679 5676 5674 5671 5669 5666 5663 5661 5659 5657 5654 5652 5649 5646 5644 5641 5639 5638 5636 5634 5632 5630 5629 5627 5625 5624 5623 5622 5621 5619 5618 5617 5616 5615 5614 5613 5612 5611 5611 5611 5611 5611 5611 5611 5611 5612 5612
5774 5772 5771 5770 5768 5767 5765 5763 5761 5759 5757 5755 5753 5750 5748 5746 5744 5741 5739 5737 5734 5731 5728 5725 5722 5718 5715 5712 5709 5706 5703 5700 5697 5694 5691 5688 5685 5682 5680 5678 5675 5672 5670 5667 5665 5662 5660 5658 5656 5653 5651 5648 5646 5643 5642 5640 5638 5636 5634 5633 5631 5629 5628 5626 5625 5624 5623 5622 5621 5619 5618 5617 5616 5615 5614 5613 5613 5613 5613 5613 5613 5613 5612 5612 5613
5773 5772 5771 5769 5768 5766 5764 5762 5760 5758 5756 5754 5752 5750 5747 5745 5743 5741 5739 5736 5734 5731 5728 5725 5722 5719 5715 5712 5709 5706 5703 5700 5697 5695 5692 5689 5686 5683 5681 5679 5676 5673 5671 5668 5666 5663 5661 5658 5656 5654 5652 5650 5648 5646 5644 5642 5640 5638 5636 5634 5633 5631 5630 5629 5627 5625 5624 5623 5622 5621 5620 5619 5618 5617 5616 5616 5616 5616 5615 5615 5615 5614 5614 5614 5614
5773 5771 5770 5769 5767 5766 5764 5762 5760 5758 5756 5754 5752 5749 5747 5745 5742 5740 5738 5736 5733 5731 5728 5725 5722 5719 5716 5712 5710 5707 5704 5701 5698 5696 5693 5690 5687 5684 5682 5680 5677 5674 5672 5669 5667 5664 5662 5659 5657 5655 5653 5651 5649 5647 5645 5644 5642 5640 5638 5636 5635 5633 5632 5630 5629 5627 5626 5625 5624 5623 5623 5622 5621 5620 5620 5619 5618 5618 5618 5617 5616 5615 5615 5615 5615
5772 5771 5770 5769 5767 5765 5763 5761 5759 5757 5755 5753 5751 5749 5746 5744 5742 5740 5738 5735 5733 5730 5728 5725 5722 5719 5716 5712 5710 5707 5704 5702 5699 5697 5694 5691 5688 5685 5683 5681 5678 5675 5672 5670 5667 5665 5663 5660 5658 5656 5653 5651 5650 5648 5646 5645 5643 5641 5640 5638 5636 5635 5633 5632 5630 5629 5628 5627 5625 5624 5624 5623 5622 5622 5621 5621 5620 5619 5619 5618 5617 5616 5616 5616 5616
5772 5771 5770 5768 5766 5764 5763 5761 5759 5757 5755 5753 5751 5749 5746 5744 5742 5740 5737 5735 5732 5730 5728 5725 5722 5718 5715 5712 5710 5707 5705 5702 5700 5697 5694 5692 5689 5687 5684 5681 5679 5676 5673 5671 5668 5665 5663 5661 5658 5656 5654 5652 5650 5649 5647 5645 5644 5642 5640 5639 5638 5636 5635 5633 5631 5630 5629 5628 5626 5625 5624 5623 5622 5622 5622 5621 5620 5619 5619 5618 5618 5617 5617 5617 5617
5772 5770 5769 5767 5765 5764 5762 5760 5758 5756 5755 5753 5751 5749 5746 5744 5742 5739 5737 5735 5733 5730 5728 5725 5721 5719 5716 5713 5710 5707 5705 5703 5700 5697 5695 5693 5690 5687 5685 5682 5679 5676 5674 5671 5668 5666 5663 5661 5659 5657 5655 5653 5652 5650 5647 5645 5644 5642 5641 5639 5638 5637 5635 5634 5632 5631 5630 5628 5627 5626 5625 5624 5623 5622 5621 5621 5620 5619 5619 5619 5619 5618 5618 5618 5618
5771 5770 5768 5767 5765 5763 5761 5760 5758 5756 5754 5753 5751 5749 5746 5744 5741 5739 5737 5735 5733 5730 5727 5725 5722 5719 5716 5713 5710 5707 5705 5703 5700 5698 5695 5693 5690 5688 5685 5682 5679 5677 5674 5671 5669 5666 5664 5661 5659 5657 5655 5653 5652 5650 5648 5646 5644 5642 5641 5639 5638 5636 5635 5634 5632 5631 5630 5629 5627 5626 5625 5624 5623 5622 5621 5620 5619 5619 5619 5619 5619 5619 5619 5619 5619
5770 5769 5768 5766 5764 5762 5761 5759 5757 5756 5754 5752 5751 5748 5746 5744 5741 5739 5737 5735 5732 5730 5728 5725 5722 5719 5716 5713 5710 5708 5705 5703 5700 5698 5695 5693 5690 5688 5685 5682 5679 5676 5673 5671 5668 5666 5663 5661 5659 5657 5655 5652 5651 5649 5648 5646 5644 5642 5641 5639 5638 5636 5635 5634 5632 5631 5629 5628 5627 5626 5625 5624 5623 5622 5621 5620 5619 5619 5619 5619 5619 5619 5619 5619 5618
5770 5768 5767 5765 5764 5762 5760 5759 5757 5755 5754 5752 5750 5748 5746 5744 5741 5739 5737 5735 5733 5730 5728 5725 5722 5719 5716 5714 5711 5708 5705 5703 5700 5698 5696 5693 5690 5688 5685 5682 5678 5675 5672 5670 5667 5665 5663 5661 5659 5657 5655 5653 5650 5648 5647 5646 5644 5642 5640 5639 5638 5636 5635 5633 5632 5631 5629 5628 5627 5626 5625 5623 5622 5622 5621 5620 5619 5618 5618 5617 5617 5618 5618 5618 5617
5769 5768 5766 5765 5763 5761 5760 5758 5757 5755 5753 5752 5750 5748 5746 5744 5741 5739 5737 5735 5733 5730 5728 5726 5723 5720 5717 5714 5711 5708 5706 5703 5701 5698 5696 5693 5690 5687 5684 5681 5678 5675 5671 5669 5666 5664 5662 5660 5658 5656 5654 5652 5650 5648 5646 5645 5643 5642 5640 5638 5637 5635 5634 5633 5632 5630 5629 5628 5626 5625 5624 5623 5622 5621 5620 5619 5618 5617 5617 5616 5616 5616 5616 5617 5616
5768 5767 5766 5764 5763 5761 5759 5758 5756 5755 5753 5751 5750 5748 5746 5744 5741 5739 5737 5735 5733 5730 5728 5726 5723 5720 5717 5714 5711 5709 5706 5703 5701 5698 5696 5693 5690 5687 5684 5680 5677 5673 5670 5667 5665 5663 5661 5659 5657 5655 5653 5651 5649 5647 5645 5643 5642 5640 5639 5637 5636 5634 5633 5632 5631 5629 5628 5627 5626 5625 5623 5622 5621 5620 5619 5618 5617 5616 5616 5615 5615 5615 5615 5615 5615
5767 5766 5765 5764 5762 5760 5759 5757 5756 5754 5752 5751 5749 5747 5745 5744 5741 5739 5737 5735 5733 5730 5728 5726 5723 5720 5717 5715 5712 5709 5706 5704 5701 5698 5695 5693 5689 5686 5683 5679 5676 5672 5669 5667 5664 5662 5660 5658 5656 5654 5652 5650 5648 5645 5643 5642 5640 5639 5637 5636 5634 5632 5631 5630 5629 5627 5626 5625 5624 5623 5622 5621 5620 5618 5617 5616 5616 5615 5614 5614 5613 5613 5613 5613 5614
5766 5765 5764 5763 5761 5759 5758 5757 5755 5753 5752 5750 5749 5747 5745 5743 5741 5739 5737 5735 5733 5730 5728 5725 5723 5720 5717 5715 5712 5709 5706 5703 5700 5698 5695 5692 5688 5685 5681 5677 5674 5671 5669 5666 5664 5661 5659 5657 5655 5653 5650 5648 5646 5644 5642 5640 5638 5637 5635 5634 5632 5631 5629 5628 5627 5625 5624 5623 5622 5621 5620 5619 5618 5617 5616 5615 5614 5613 5613 5612 5611 5611 5611 5611 5612
5766 5764 5763 5762 5760 5759 5757 5756 5754 5753 5751 5750 5748 5747 5745 5743 5741 5739 5737 5735 5732 5730 5727 5725 5722 5720 5717 5715 5712 5709 5705 5703 5700 5697 5694 5690 5686 5683 5679 5676 5673 5670 5668 5666 5663 5661 5659 5656 5654 5652 5649 5647 5645 5643 5641 5638 5637 5635 5633 5631 5630 5628 5627 5626 5624 5623 5622 5621 5620 5619 5618 5617 5616 5615 5614 5614 5613 5612 5611 5610 5609 5608 5609 5609 5609
5765 5764 5763 5761 5760 5758 5756 5755 5753 5752 5750 5749 5748 5746 5744 5743 5741 5739 5736 5734 5732 5729 5727 5725 5722 5719 5717 5714 5711 5708 5705 5702 5699 5696 5692 5689 5685 5682 5678 5675 5673 5670 5668 5665 5663 5660 5658 5656 5654 5651 5649 5646 5644 5642 5639 5637 5635 5633 5631 5629 5627 5626 5624 5623 5622 5621 5620 5619 5618 5617 5616 5615 5614 5613 5612 5612 5611 5610 5609 5607 5607 5606 5606 5607 5608
5764 5763 5761 5760 5759 5757 5755 5754 5753 5751 5750 5748 5747 5745 5744 5742 5740 5738 5736 5733 5731 5729 5726 5724 5722 5719 5716 5713 5710 5708 5705 5702 5698 5695 5692 5688 5684 5681 5678 5675 5672 5670 5667 5665 5662 5660 5658 5655 5653 5651 5648 5646 5643 5641 5638 5635 5633 5631 5629 5627 5625 5623 5622 5621 5619 5618 5617 5616 5616 5615 5614 5613 5612 5611 5610 5609 5608 5607 5606 5605 5604 5604 5604 5605 5606
5763 5761 5760 5759 5758 5756 5755 5753 5752 5750 5749 5747 5746 5744 5743 5741 5739 5737 5735 5733 5731 5728 5726 5724 5721 5719 5716 5713 5710 5707 5705 5701 5698 5695 5691 5688 5684 5681 5678 5675 5672 5670 5667 5665 5662 5660 5658 5655 5653 5650 5647 5644 5642 5639 5636 5634 5631 5628 5626 5624 5622 5621 5619 5618 5617 5616 5615 5614 5613 5612 5612 5611 5610 5609 5608 5607 5605 5604 5603 5602 5601 5602 5602 5603 5605
5762 5760 5759 5758 5757 5755 5754 5752 5751 5749 5748 5746 5745 5743 5742 5740 5739 5737 5735 5732 5730 5728 5725 5723 5721 5718 5715 5713 5710 5707 5704 5701 5698 5694 5691 5687 5684 5681 5678 5675 5672 5669 5667 5665 5662 5660 5657 5655 5652 5649 5646 5643 5640 5637 5634 5631 5629 5626 5624 5622 5620 5618 5617 5616 5615 5614 5613 5612 5611 5610 5609 5608 5607 5606 5605 5604 5602 5601 5600 5599 5599 5600 5601 5602 5604
5760 5759 5758 5757 5755 5754 5753 5751 5749 5748 5746 5745 5744 5742 5741 5739 5738 5736 5734 5732 5730 5727 5725 5722 5720 5718 5715 5712 5709 5707 5704 5701 5698 5694 5691 5687 5684 5680 5677 5674 5671 5669 5666 5664 5662 5659 5656 5654 5651 5648 5645 5641 5638 5635 5632 5629 5626 5623 5621 5619 5617 5616 5614 5613 5612 5611 5610 5610 5609 5608 5607 5606 5605 5604 5603 5602 5600 5599 5598 5598 5599 5600 5601 5602 5603
5758 5757 5756 5755 5754 5753 5751 5750 5748 5747 5745 5744 5742 5741 5740 5738 5737 5735 5733 5731 5729 5727 5724 5722 5719 5717 5714 5712 5709 5706 5703 5700 5697 5694 5690 5687 5683 5680 5677 5674 5671 5668 5666 5663 5661 5658 5655 5652 5649 5646 5642 5639 5636 5632 5629 5626 5623 5620 5618 5616 5615 5613 5612 5610 5609 5608 5608 5607 5606 5606 5605 5604 5603 5603 5601 5600 5598 5598 5598 5599 5599 5600 5601 5601 5602
5756 5755 5754 5753 5752 5751 5750 5748 5747 5745 5744 5742 5741 5740 5738 5737 5736 5734 5732 5731 5728 5726 5723 5721 5719 5716 5714 5711 5708 5705 5702 5700 5696 5693 5689 5686 5682 5679 5676 5673 5670 5668 5665 5662 5660 5657 5654 5651 5647 5644 5640 5636 5633 5629 5626 5623 5620 5617 5615 5614 5612 5611 5609 5608 5607 5606 5605 5604 5604 5604 5603 5603 5602 5601 5600 5598 5598 5598 5599 5599 5600 5601 5601 5602 5602
5754 5753 5752 5751 5750 5749 5748 5747 5745 5744 5742 5741 5740 5738 5737 5736 5734 5733 5731 5729 5727 5725 5723 5720 5718 5715 5713 5710 5707 5704 5701 5699 5695 5692 5688 5685 5681 5678 5675 5672 5670 5667 5664 5662 5659 5656 5652 5649 5646 5642 5638 5634 5630 5626 5623 5620 5617 5615 5613 5611 5610 5608 5607 5606 5604 5603 5602 5602 5602 5602 5602 5601 5601 5600 5599 5598 5598 5599 5599 5600 5600 5601 5602 5602 5603
5751 5751 5750 5749 5748 5747 5746 5745 5744 5742 5741 5739 5738 5737 5735 5734 5733 5732 5730 5728 5726 5724 5722 5719 5717 5714 5712 5709 5706 5703 5700 5697 5694 5691 5687 5684 5680 5677 5674 5672 5669 5666 5663 5660 5657 5654 5651 5648 5644 5639 5635 5631 5628 5624 5621 5618 5616 5613 5611 5609 5607 5606 5605 5604 5602 5601 5600 5600 5600 5600 5600 5600 5600 5599 5598 5598 5598 5599 5600 5600 5601 5601 5602 5602 5603
5749 5748 5747 5746 5745 5744 5744 5743 5742 5740 5739 5737 5736 5735 5734 5733 5731 5730 5729 5727 5725 5723 5720 5718 5716 5713 5711 5708 5705 5702 5699 5696 5693 5690 5686 5683 5679 5676 5674 5671 5668 5665 5662 5659 5656 5653 5649 5645 5641 5637 5633 5629 5626 5623 5620 5617 5615 5612 5610 5608 5606 5604 5603 5602 5601 5599 5598 5598 5598 5599 5599 5599 5599 5598 5598 5598 5598 5599 5600 5600 5601 5601 5602 5602 5603
5746 5745 5744 5743 5743 5742 5741 5740 5739 5738 5737 5735 5734 5733 5732 5731 5730 5728 5727 5725 5724 5721 5719 5717 5715 5712 5710 5707 5704 5701 5698 5695 5692 5689 5685 5682 5678 5676 5673 5670 5667 5664 5661 5658 5655 5651 5647 5643 5639 5636 5632 5628 5625 5621 5619 5616 5614 5611 5609 5607 5605 5603 5601 5600 5599 5598 5597 5596 5597 5597 5598 5598 5598 5598 5598 5598 5598 5599 5600 5600 5600 5601 5602 5602 5603
5743 5742 5742 5741 5740 5739 5739 5738 5737 5736 5735 5733 5732 5730 5730 5729 5728 5727 5725 5724 5722 5720 5718 5715 5713 5711 5709 5706 5703 5700 5697 5694 5691 5688 5684 5680 5677 5675 5672 5669 5666 5663 5660 5657 5653 5650 5646 5643 5639 5635 5631 5627 5623 5620 5617 5615 5612 5610 5608 5606 5604 5602 5600 5599 5598 5597 5596 5595 5596 5596 5597 5597 5597 5597 5597 5597 5598 5598 5599 5600 5600 5601 5602 5602 5603
5740 5739 5738 5738 5737 5736 5736 5735 5734 5733 5732 5731 5730 5728 5727 5727 5726 5725 5724 5722 5720 5718 5716 5714 5712 5710 5707 5704 5701 5699 5696 5693 5690 5687 5683 5679 5676 5674 5671 5668 5665 5662 5659 5656 5652 5649 5645 5642 5638 5633 5629 5626 5622 5619 5616 5613 5611 5609 5607 5605 5603 5601 5599 5598 5597 5596 5595 5595 5595 5596 5596 5596 5596 5596 5596 5597 5598 5598 5599 5600 5601 5601 5601 5602 5602
5736 5736 5735 5735 5734 5733 5733 5732 5731 5731 5730 5729 5728 5726 5725 5725 5724 5723 5722 5720 5718 5716 5714 5713 5711 5709 5706 5703 5700 5698 5695 5692 5689 5685 5682 5679 5676 5673 5670 5667 5664 5661 5658 5655 5651 5648 5644 5640 5636 5632 5628 5624 5620 5617 5614 5611 5610 5608 5606 5604 5602 5600 5598 5597 5597 5596 5595 5594 5595 5595 5596 5596 5596 5595 5595 5596 5597 5598 5599 5600 5600 5601 5601 5602 5602
5732 5732 5732 5731 5731 5730 5730 5729 5728 5728 5727 5726 5725 5724 5723 5722 5721 5720 5719 5718 5716 5714 5713 5711 5709 5707 5705 5702 5699 5696 5694 5691 5688 5684 5681 5678 5675 5672 5669 5666 5663 5660 5657 5654 5650 5647 5643 5639 5635 5630 5626 5622 5619 5615 5612 5610 5609 5607 5605 5603 5601 5600 5598 5597 5596 5595 5594 5594 5595 5595 5596 5596 5596 5595 5595 5595 5596 5597 5598 5599 5600 5601 5601 5602 5602
5729 5728 5728 5728 5727 5727 5727 5726 5725 5725 5724 5723 5722 5721 5720 5720 5719 5718 5717 5716 5714 5712 5711 5709 5708 5706 5703 5700 5697 5695 5692 5689 5686 5683 5680 5677 5674 5671 5668 5665 5662 5659 5656 5653 5650 5646 5642 5638 5634 5629 5625 5621 5617 5614 5611 5609 5608 5606 5605 5603 5601 5600 5598 5597 5596 5596 5595 5594 5595 5596 5596 5596 5596 5595 5595 5595 5595 5596 5597 5599 5600 5600 5601 5601 5602
5725 5725 5725 5724 5724 5724 5723 5723 5722 5722 5721 5720 5719 5718 5718 5717 5716 5715 5714 5713 5712 5710 5709 5707 5706 5704 5701 5698 5696 5694 5691 5688 5685 5682 5679 5676 5673 5670 5667 5664 5661 5658 5655 5652 5649 5645 5641 5637 5633 5628 5624 5620 5617 5613 5611 5609 5607 5606 5604 5603 5601 5600 5598 5597 5597 5596 5595 5595 5595 5596 5596 5596 5596 5596 5595 5595 5595 5596 5597 5598 5599 5600 5601 5601 5601
5722 5721 5721 5721 5721 5720 5720 5719 5719 5718 5718 5717 5717 5716 5715 5714 5713 5713 5711 5710 5709 5708 5706 5705 5704 5702 5699 5697 5694 5692 5690 5687 5684 5681 5678 5675 5672 5669 5666 5663 5660 5658 5654 5651 5648 5644 5640 5636 5632 5628 5624 5620 5617 5613 5611 5609 5607 5606 5604 5603 5601 5600 5598 5597 5597 5596 5596 5596 5596 5597 5597 5597 5596 5596 5595 5595 5595 5595 5596 5597 5598 5600 5601 5601 5601
5718 5718 5718 5718 5717 5717 5717 5716 5716 5715 5715 5714 5714 5713 5712 5711 5711 5710 5709 5708 5706 5705 5704 5703 5701 5699 5697 5695 5693 5691 5688 5685 5683 5680 5677 5674 5671 5668 5665 5663 5660 5657 5654 5650 5647 5644 5640 5636 5632 5628 5624 5620 5617 5613 5611 5609 5607 5606 5604 5603 5602 5600 5599 5598 5597 5596 5596 5596 5597 5597 5597 5597 5597 5597 5596 5595 5595 5595 5595 5596 5597 5599 5600 5601 5601
5714 5714 5714 5713 5713 5713 5713 5713 5712 5712 5712 5711 5711 5710 5709 5708 5708 5707 5706 5705 5704 5703 5701 5700 5699 5697 5695 5693 5691 5689 5686 5684 5681 5679 5676 5672 5670 5667 5664 5662 5659 5656 5653 5650 5647 5643 5639 5635 5631 5627 5624 5620 5617 5614 5611 5609 5607 5606 5605 5603 5602 5601 5599 5598 5597 5596 5596 5596 5597 5598 5598 5598 5598 5598 5597 5596 5595 5595 5595 5596 5597 5598 5600 5601 5601
5710 5710 5710 5709 5709 5709 5709 5709 5709 5708 5708 5708 5708 5707 5706 5706 5705 5704 5703 5702 5701 5700 5699 5698 5696 5694 5693 5691 5689 5687 5685 5682 5680 5677 5674 5671 5669 5666 5663 5661 5658 5655 5652 5649 5646 5643 5639 5635 5631 5627 5624 5620 5617 5614 5611 5609 5608 5606 5605 5604 5602 5601 5600 5599 5598 5597 5597 5597 5597 5598 5598 5599 5599 5599 5598 5597 5596 5596 5595 5596 5596 5598 5599 5600 5601
5705 5705 5705 5705 5704 5705 5705 5705 5704 5704 5704 5704 5704 5704 5703 5703 5702 5701 5700 5699 5698 5697 5696 5695 5694 5692 5690 5689 5687 5685 5683 5680 5678 5675 5673 5670 5667 5665 5662 5660 5657 5654 5651 5648 5646 5642 5638 5635 5631 5628 5624 5621 5618 5615 5612 5610 5608 5607 5605 5604 5603 5602 5601 5599 5598 5598 5597 5597 5598 5598 5599 5599 5599 5599 5599 5598 5598 5597 5596 5596 5596 5597 5599 5600 5601
5700 5700 5700 5700 5700 5701 5701 5701 5701 5701 5701 5701 5701 5701 5700 5699 5699 5698 5698 5696 5695 5695 5694 5693 5691 5690 5688 5686 5685 5683 5681 5679 5676 5674 5671 5668 5666 5664 5661 5659 5656 5653 5650 5648 5645 5642 5638 5634 5631 5628 5625 5622 5618 5615 5613 5611 5609 5607 5606 5605 5603 5602 5601 5600 5599 5598 5598 5598 5598 5599 5599 5600 5600 5600 5600 5599 5599 5598 5598 5597 5597 5597 5599 5600 5601
5694 5695 5695 5696 5696 5697 5697 5697 5697 5696 5696 5697 5697 5697 5696 5696 5696 5696 5695 5694 5693 5692 5692 5691 5689 5688 5686 5684 5683 5681 5679 5677 5674 5672 5669 5667 5665 5662 5660 5658 5656 5653 5650 5647 5644 5641 5638 5634 5631 5628 5625 5622 5619 5616 5614 5612 5610 5608 5607 5605 5604 5603 5602 5601 5600 5599 5598 5598 5598 5599 5600 5600 5601 5601 5601 5601 5600 5600 5599 5599 5598 5598 5599 5600 5601
5689 5690 5690 5690 5691 5692 5692 5692 5692 5692 5692 5693 5693 5693 5693 5693 5693 5692 5692 5691 5690 5689 5689 5688 5687 5685 5683 5682 5681 5679 5677 5675 5672 5670 5668 5665 5663 5661 5659 5657 5655 5652 5649 5646 5644 5641 5637 5634 5631 5628 5625 5623 5620 5617 5615 5612 5611 5609 5608 5606 5605 5603 5602 5601 5601 5600 5599 5599 5599 5600 5600 5601 5601 5602 5602 5602 5602 5602 5601 5601 5600 5600 5600 5600 5601
5684 5684 5685 5685 5686 5687 5687 5687 5687 5688 5688 5689 5689 5689 5689 5690 5689 5689 5689 5688 5687 5687 5686 5685 5684 5682 5681 5679 5678 5677 5675 5673 5670 5668 5666 5664 5662 5660 5658 5656 5654 5651 5648 5646 5643 5640 5637 5634 5631 5628 5625 5623 5621 5618 5616 5613 5612 5610 5608 5607 5605 5604 5603 5602 5601 5601 5600 5599 5599 5600 5601 5601 5602 5602 5603 5603 5603 5603 5603 5603 5602 5602 5602 5601 5601
5678 5678 5679 5681 5683 5683 5682 5682 5683 5683 5684 5684 5685 5686 5686 5686 5686 5686 5685 5685 5684 5684 5683 5682 5681 5680 5678 5677 5676 5675 5673 5670 5668 5666 5665 5662 5660 5658 5656 5654 5652 5650 5647 5645 5642 5639 5636 5633 5630 5628 5625 5623 5621 5619 5616 5614 5612 5611 5609 5608 5606 5605 5604 5603 5602 5601 5601 5600 5600 5600 5601 5601 5602 5603 5603 5603 5604 5604 5604 5604 5604 5604 5604 5603 5603
5672 5672 5673 5675 5677 5678 5678 5678 5678 5679 5679 5680 5681 5682 5682 5682 5682 5682 5682 5682 5681 5681 5680 5679 5678 5677 5675 5674 5673 5672 5670 5668 5666 5665 5663 5661 5659 5657 5655 5653 5651 5649 5647 5644 5641 5639 5636 5633 5630 5628 5625 5623 5621 5619 5617 5615 5613 5612 5610 5609 5607 5606 5604 5603 5602 5602 5601 5600 5600 5600 5601 5601 5602 5603 5603 5604 5604 5604 5605 5605 5605 5605 5605 5605 5605
5666 5667 5668 5670 5672 5673 5673 5673 5674 5674 5675 5676 5677 5678 5678 5678 5679 5679 5679 5678 5678 5677 5677 5676 5675 5674 5672 5671 5670 5669 5668 5666 5665 5663 5661 5659 5657 5656 5654 5652 5650 5648 5646 5643 5641 5638 5635 5632 5630 5627 5625 5623 5621 5619 5617 5615 5614 5612 5611 5609 5608 5607 5605 5604 5603 5602 5602 5601 5601 5600 5601 5601 5602 5603 5603 5604 5604 5605 5605 5606 5606 5606 5606 5606 5606
5659 5661 5662 5664 5666 5668 5668 5668 5669 5670 5671 5671 5672 5673 5674 5675 5675 5675 5675 5674 5674 5674 5674 5673 5672 5671 5670 5668 5667 5667 5666 5664 5663 5661 5659 5657 5656 5654 5652 5651 5649 5647 5645 5643 5640 5637 5635 5632 5629 5627 5625 5622 5621 5619 5617 5616 5614 5612 5611 5610 5608 5607 5606 5605 5604 5603 5602 5601 5601 5601 5601 5601 5602 5602 5603 5604 5605 5605 5606 5606 5606 5607 5607 5607 5608
5653 5655 5656 5658 5660 5662 5663 5663 5664 5665 5666 5667 5668 5669 5670 5671 5671 5671 5671 5671 5671 5671 5670 5670 5669 5668 5666 5665 5665 5664 5663 5662 5661 5659 5657 5656 5654 5652 5651 5649 5648 5646 5644 5642 5639 5637 5634 5632 5629 5627 5624 5622 5620 5619 5617 5616 5614 5612 5611 5610 5608 5607 5606 5605 5604 5603 5602 5602 5601 5601 5601 5601 5601 5602 5603 5603 5604 5605 5606 5606 5607 5607 5608 5608 5608
5646 5648 5650 5651 5653 5656 5657 5658 5659 5661 5662 5662 5663 5664 5666 5667 5667 5667 5667 5667 5667 5667 5666 5666 5665 5664 5663 5662 5662 5662 5661 5660 5658 5657 5655 5654 5652 5651 5649 5648 5646 5645 5643 5641 5638 5636 5634 5631 5629 5626 5624 5622 5620 5619 5617 5615 5614 5612 5611 5610 5608 5607 5606 5605 5604 5603 5602 5602 5601 5601 5601 5601 5601 5601 5602 5603 5604 5605 5605 5606 5607 5607 5608 5608 5609
5637 5640 5642 5644 5646 5649 5651 5653 5655 5656 5656 5656 5658 5660 5662 5663 5663 5663 5663 5663 5663 5663 5662 5662 5662 5661 5660 5660 5659 5659 5658 5657 5656 5654 5653 5652 5650 5649 5648 5646 5645 5644 5642 5640 5638 5635 5633 5631 5629 5626 5624 5622 5620 5618 5617 5615 5614 5612 5611 5609 5608 5607 5606 5605 5604 5603 5603 5602 5601 5601 5601 5601 5601 5601 5601 5602 5603 5604 5605 5606 5606 5607 5608 5608 5609
5629 5632 5635 5637 5640 5642 5645 5648 5650 5651 5651 5651 5654 5656 5658 5658 5659 5659 5658 5659 5659 5659 5659 5659 5659 5658 5657 5657 5657 5656 5656 5655 5654 5652 5651 5650 5649 5648 5646 5645 5643 5642 5641 5639 5637 5634 5632 5630 5628 5626 5624 5622 5620 5618 5617 5615 5613 5612 5610 5609 5608 5607 5606 5605 5604 5603 5603 5602 5601 5601 5601 5601 5601 5601 5601 5601 5602 5603 5604 5605 5606 5607 5608 5608 5609